Simultaneous Nadir Overpasses (SNOs) Predictions

Prediction of SNOs between METOP-A and TERRA Satellite Orbit:

Table of predicted SNOs for the next 14.0 days since TLE Epoch: 4/28/2018
Index Date (METOP-A) Time (METOP-A) Lat,Lon (METOP-A) SZA (METOP-A ) Date (TERRA) Time (TERRA) Lat,Lon (TERRA) SZA (TERRA ) Distance(km) Time Diff (sec)
1 04/30/2018 22:58:10 81.41,-115.13 69.60 04/30/2018 22:58:13 81.41,-115.11 69.60 0.45 3
2 04/30/2018 23:48:50 -81.41, 52.63 110.37 04/30/2018 23:47:40 -81.41, 52.45 110.43 3.03 70
3 05/03/2018 18:32:28 81.41, -48.76 68.77 05/03/2018 18:32:31 81.41, -48.80 68.76 0.89 3
4 05/03/2018 19:23:08 -81.41, 119.02 111.19 05/03/2018 19:21:57 -81.42, 119.16 111.21 2.59 71
5 05/06/2018 14:06:45 81.41, 17.99 68.02 05/06/2018 14:06:48 81.42, 17.87 68.01 2.02 3
6 05/06/2018 14:57:26 -81.41,-174.61 111.99 05/06/2018 14:56:15 -81.42,-174.53 112.01 1.39 71
7 05/09/2018 09:41:02 81.41, 84.33 67.25 05/09/2018 09:41:05 81.41, 84.14 67.23 3.05 3
8 05/09/2018 10:31:43 -81.41,-108.26 112.76 05/09/2018 10:30:32 -81.41,-108.24 112.79 0.48 71




NCC Satellite Simultaneous Nadir Overpasses (SNOs) Prediction Service
